Hourly Weather Satif

Today, 1 October, Thursday

Time Temperature Precipitation Wind Pressure Humidity
00:00 +19°C° 0 mm 0 mps 671 mmHg 70%
01:00 +18°C° 0 mm 0 mps 670 mmHg 70%
02:00 +18°C° 0 mm 0 mps 670 mmHg 71%
03:00 +18°C° 0 mm 0 mps 669 mmHg 72%
04:00 +20°C° 0 mm 1 mps 669 mmHg 72%
05:00 +19°C° 0 mm 1 mps 670 mmHg 72%
06:00 +19°C° 0 mm 1 mps 670 mmHg 72%
07:00 +21°C° 0 mm 1 mps 670 mmHg 65%
08:00 +22°C° 0 mm 1 mps 670 mmHg 57%
09:00 +21°C° 0 mm 0 mps 670 mmHg 50%
10:00 +24°C° 0 mm 1 mps 671 mmHg 43%
11:00 +25°C° 0 mm 1 mps 671 mmHg 37%
12:00 +26°C° 0 mm 2 mps 671 mmHg 30%
13:00 +27°C° 0 mm 2 mps 671 mmHg 30%
14:00 +27°C° 0 mm 3 mps 670 mmHg 30%
15:00 +27°C° 0 mm 4 mps 670 mmHg 30%
16:00 +25°C° 0 mm 3 mps 670 mmHg 35%
17:00 +24°C° 0 mm 3 mps 670 mmHg 41%
18:00 +23°C° 0 mm 2 mps 669 mmHg 46%
19:00 +21°C° 0 mm 2 mps 669 mmHg 49%
20:00 +22°C° 0 mm 1 mps 669 mmHg 52%
21:00 +21°C° 0 mm 1 mps 669 mmHg 54%
22:00 +21°C° 0 mm 1 mps 669 mmHg 55%
23:00 +20°C° 0 mm 1 mps 668 mmHg 56%

Tomorrow, 2 October, Friday

Time Temperature Precipitation Wind Pressure Humidity
00:00 +20°C° 0 mm 1 mps 668 mmHg 57%
01:00 +19°C° 0 mm 1 mps 667 mmHg 55%
02:00 +18°C° 0 mm 2 mps 667 mmHg 53%
03:00 +18°C° 0 mm 2 mps 666 mmHg 50%
04:00 +18°C° 0 mm 3 mps 666 mmHg 49%
05:00 +17°C° 0 mm 3 mps 666 mmHg 48%
06:00 +17°C° 0 mm 3 mps 666 mmHg 46%
07:00 +19°C° 0 mm 5 mps 666 mmHg 39%
08:00 +21°C° 0 mm 6 mps 667 mmHg 31%
09:00 +23°C° 0 mm 7 mps 667 mmHg 24%
10:00 +24°C° 0 mm 8 mps 667 mmHg 24%
11:00 +26°C° 0 mm 9 mps 667 mmHg 24%
12:00 +27°C° 0 mm 10 mps 666 mmHg 24%
13:00 +27°C° 0 mm 10 mps 666 mmHg 27%
14:00 +27°C° 0 mm 10 mps 666 mmHg 30%
15:00 +27°C° 0 mm 10 mps 665 mmHg 33%
16:00 +26°C° 0 mm 9 mps 665 mmHg 37%
17:00 +24°C° 0 mm 8 mps 665 mmHg 40%
18:00 +23°C° 0 mm 7 mps 664 mmHg 44%
19:00 +23°C° 0 mm 6 mps 664 mmHg 45%
20:00 +22°C° 0 mm 6 mps 665 mmHg 45%
21:00 +22°C° 0 mm 5 mps 665 mmHg 46%
22:00 +21°C° 0 mm 4 mps 665 mmHg 44%
23:00 +20°C° 0 mm 4 mps 665 mmHg 42%

Day after tomorrow, 3 October, Saturday

Time Temperature Precipitation Wind Pressure Humidity
00:00 +19°C° 0 mm 4 mps 664 mmHg 40%
01:00 +18°C° 0 mm 4 mps 664 mmHg 49%
02:00 +17°C° 0 mm 4 mps 664 mmHg 59%
03:00 +16°C° 0 mm 3 mps 664 mmHg 69%
04:00 +14°C° 0 mm 3 mps 664 mmHg 73%
05:00 +15°C° 0 mm 2 mps 664 mmHg 76%
06:00 +14°C° 0 mm 1 mps 664 mmHg 79%
07:00 +16°C° 0 mm 2 mps 665 mmHg 72%
08:00 +17°C° 0 mm 3 mps 665 mmHg 66%
09:00 +18°C° 0 mm 4 mps 666 mmHg 59%
10:00 +17°C° 0 mm 5 mps 666 mmHg 56%
11:00 +17°C° 0 mm 7 mps 666 mmHg 53%
12:00 +17°C° 0 mm 8 mps 666 mmHg 50%
13:00 +17°C° 0 mm 7 mps 666 mmHg 47%
14:00 +17°C° 0 mm 7 mps 667 mmHg 45%
15:00 +17°C° 0 mm 7 mps 667 mmHg 42%
16:00 +16°C° 0 mm 6 mps 667 mmHg 45%
17:00 +15°C° 0 mm 5 mps 667 mmHg 47%
18:00 +14°C° 0 mm 4 mps 667 mmHg 50%
19:00 +13°C° 0 mm 3 mps 668 mmHg 53%
20:00 +12°C° 0 mm 3 mps 668 mmHg 55%
21:00 +13°C° 0 mm 2 mps 669 mmHg 58%
22:00 +12°C° 0 mm 2 mps 668 mmHg 60%
23:00 +12°C° 0 mm 2 mps 668 mmHg 61%

4 October, Sunday

Time Temperature Precipitation Wind Pressure Humidity
00:00 +12°C° 0 mm 2 mps 668 mmHg 63%
01:00 +11°C° 0 mm 1 mps 667 mmHg 64%
02:00 +11°C° 0 mm 1 mps 667 mmHg 64%
03:00 +10°C° 0 mm 1 mps 667 mmHg 65%
04:00 +10°C° 0 mm 1 mps 667 mmHg 64%
05:00 +10°C° 0 mm 1 mps 667 mmHg 63%
06:00 +10°C° 0 mm 1 mps 667 mmHg 63%
07:00 +12°C° 0 mm 2 mps 668 mmHg 53%
08:00 +13°C° 0 mm 2 mps 668 mmHg 43%
09:00 +14°C° 0 mm 3 mps 669 mmHg 33%
10:00 +17°C° 0 mm 4 mps 669 mmHg 29%
11:00 +19°C° 0 mm 5 mps 669 mmHg 25%
12:00 +21°C° 0 mm 6 mps 669 mmHg 21%
13:00 +21°C° 0 mm 7 mps 669 mmHg 23%
14:00 +20°C° 0 mm 8 mps 668 mmHg 25%
15:00 +20°C° 0 mm 8 mps 668 mmHg 28%
16:00 +18°C° 0 mm 7 mps 668 mmHg 30%
17:00 +17°C° 0 mm 5 mps 668 mmHg 33%
18:00 +17°C° 0 mm 4 mps 668 mmHg 36%
19:00 +16°C° 0 mm 3 mps 668 mmHg 41%
20:00 +15°C° 0 mm 2 mps 669 mmHg 45%
21:00 +14°C° 0 mm 1 mps 669 mmHg 50%
22:00 +14°C° 0 mm 1 mps 669 mmHg 51%
23:00 +14°C° 0 mm 1 mps 669 mmHg 53%

5 October, Monday

Time Temperature Precipitation Wind Pressure Humidity
00:00 +13°C° 0 mm 2 mps 669 mmHg 54%
01:00 +13°C° 0 mm 1 mps 668 mmHg 57%
02:00 +13°C° 0 mm 1 mps 668 mmHg 60%
03:00 +12°C° 0 mm 1 mps 668 mmHg 63%
04:00 +12°C° 0 mm 1 mps 668 mmHg 63%
05:00 +13°C° 0 mm 1 mps 668 mmHg 64%
06:00 +13°C° 0 mm 1 mps 668 mmHg 65%
07:00 +14°C° 0 mm 2 mps 669 mmHg 58%
08:00 +15°C° 0 mm 2 mps 670 mmHg 52%
09:00 +16°C° 0 mm 3 mps 670 mmHg 46%
10:00 +17°C° 0 mm 3 mps 670 mmHg 44%
11:00 +18°C° 0 mm 3 mps 671 mmHg 41%
12:00 +19°C° 0 mm 4 mps 671 mmHg 39%
13:00 +18°C° 0 mm 4 mps 671 mmHg 43%
14:00 +18°C° 0 mm 4 mps 670 mmHg 47%
15:00 +18°C° 0 mm 4 mps 670 mmHg 52%
16:00 +15°C° 0 mm 4 mps 670 mmHg 58%
17:00 +14°C° 0 mm 4 mps 671 mmHg 65%
18:00 +13°C° 0 mm 4 mps 671 mmHg 72%
19:00 +13°C° 0 mm 3 mps 671 mmHg 75%
20:00 +12°C° 0 mm 3 mps 672 mmHg 77%
21:00 +13°C° 0 mm 2 mps 672 mmHg 79%
22:00 +12°C° 0 mm 2 mps 672 mmHg 80%
23:00 +12°C° 0 mm 2 mps 672 mmHg 82%

6 October, Tuesday

Time Temperature Precipitation Wind Pressure Humidity
00:00 +12°C° 0 mm 1 mps 672 mmHg 83%
01:00 +11°C° 0 mm 1 mps 672 mmHg 83%
02:00 +11°C° 0 mm 1 mps 672 mmHg 84%
03:00 +11°C° 0 mm 1 mps 672 mmHg 85%
04:00 +10°C° 0 mm 1 mps 672 mmHg 85%
05:00 +10°C° 0 mm 1 mps 672 mmHg 85%
06:00 +10°C° 0 mm 1 mps 672 mmHg 85%
07:00 +11°C° 0 mm 1 mps 673 mmHg 75%
08:00 +12°C° 0 mm 1 mps 673 mmHg 65%
09:00 +13°C° 0 mm 1 mps 674 mmHg 56%
10:00 +15°C° 0 mm 1 mps 674 mmHg 50%
11:00 +16°C° 0 mm 1 mps 674 mmHg 44%
12:00 +18°C° 0 mm 1 mps 674 mmHg 39%
13:00 +18°C° 0 mm 1 mps 674 mmHg 37%
14:00 +19°C° 0 mm 1 mps 674 mmHg 36%
15:00 +18°C° 0 mm 2 mps 674 mmHg 35%
16:00 +17°C° 0 mm 2 mps 674 mmHg 40%
17:00 +17°C° 0 mm 2 mps 674 mmHg 46%
18:00 +16°C° 0 mm 2 mps 674 mmHg 51%
19:00 +15°C° 0 mm 1 mps 674 mmHg 56%
20:00 +14°C° 0 mm 1 mps 674 mmHg 60%
21:00 +14°C° 0 mm 1 mps 674 mmHg 65%
22:00 +13°C° 0 mm 1 mps 674 mmHg 67%
23:00 +13°C° 0 mm 1 mps 673 mmHg 69%
Show more

We Need Your Consent

Meteoprog and our Service Providers may store and access personal data such as cookies, device identifiers or other similar technologies on your device and process such data to personalise content and ads, as well as provide social media features and to analyse the traffic.

  • Store and/or access information on your device

    Cookies, device identifiers or other information can be stored or accessed on your device for the purposes indicated above.

  • Personalised ads and content, ad and content measurement, audience insights, and products development

    Ads and content can be personalised based on a profile. More data can be added to better personalise ads and content. Ad and content performance can be measured. Insights about the audience who saw the ads and content can be derived. Such data can be used to develop or improve user’s experience, systems and software.

By clicking ‘I Agree’ you will allow the use of indicated cookies, device identifiers, web beacons or other similar technologies. Your settings can be changed in the browser on your device.

For certain purposes, legitimate interests may be relied on, rather than consent. You can read more about this in our Privacy and Cookie Policy.